Regional Weather Roundup
Issued by NWS

Home | Current Version | Previous Version | Text Only | Print | Product List | Glossary On
Versions: 1 2 3 4 5 6 7 8 9 10 11 12 13 14 15 16 17 18 19 20 21 22 23 24 25 26 27 28 29 30 31 32 33 34 35 36 37 38 39 40 41 42 43 44 45 46 47 48 49 50
000
ASUS43 KLSX 211559
RWRMO

WEATHER SUMMARY FOR MISSOURI
NATIONAL WEATHER SERVICE SPRINGFIELD MO
1000 AM CST FRI NOV 21 2014

NOTE: "FAIR" INDICATES FEW OR NO CLOUDS BELOW 12,000 FEET WITH NO
       SIGNIFICANT WEATHER AND/OR OBSTRUCTIONS TO VISIBILITY.
       CURRENT SKY AND/OR WEATHER CONDITIONS ARE NOT AVAILABLE FOR
       CHILLICOTHE AND FARMINGTON.

MOZ001>031-035>038-043-044-053-054-211700-
...NORTHERN AND WESTERN MISSOURI...

CITY           SKY/WX    TMP DP  RH WIND       PRES   REMARKS
KANSAS CTY INT MOSUNNY   34  20  56 SE16      30.22S WCI  24
KANSAS C DTWN  CLOUDY    35  20  54 E9        30.24S WCI  28
LEE`S SUMMIT   CLOUDY    34  21  59 E12       30.23F WCI  25
ST JOSEPH      PTSUNNY   32  20  61 E10       30.23F WCI  24
CHILLICOTHE      N/A     32  17  54 SE9       30.31F WCI  24
KIRKSVILLE     SUNNY     29  17  61 SE15      30.34S WCI  18

$$
MOZ066>068-077>081-088>096-101>105-211700-
...SOUTHWEST MISSOURI...

CITY           SKY/WX    TMP DP  RH WIND       PRES   REMARKS
SPRINGFIELD    CLOUDY    45  26  47 SE23G29   30.23S
JOPLIN         CLOUDY    46  39  76 SE14G20   30.18F

$$
MOZ032>034-039>042-045>050-055>058-069>072-211700-
...CENTRAL MISSOURI...

CITY           SKY/WX    TMP DP  RH WIND       PRES   REMARKS
COLUMBIA       SUNNY     35  19  52 SE13G22   30.32F WCI  26
JEFFERSON CITY PTSUNNY   34  19  54 E10       30.35S WCI  26
ROLLA          PTSUNNY   34  20  56 SE9G22    30.31S WCI  27
SEDALIA        CLOUDY    35  21  56 SE16      30.29S WCI  25
WARRENSBURG    CLOUDY    34  23  64 E8        30.25F WCI  27
OSAGE BEACH    CLOUDY    37  21  52 SE13G21   30.30S WCI  29

$$
MOZ051-052-059>065-211700-
...EAST CENTRAL MISSOURI...

CITY           SKY/WX    TMP DP  RH WIND       PRES   REMARKS
ST LOUIS INTL  MOSUNNY   33  15  47 SE13      30.43S WCI  24
SPIRIT OF STL  PTSUNNY   33  15  47 SE8       30.42R WCI  26
ST CHARLES     SUNNY     31  16  54 E13       30.44S WCI  21

$$
MOZ072>076-082>087-097>100-106>115-211700-
...SOUTH CENTRAL AND SOUTHEAST MISSOURI...

CITY           SKY/WX    TMP DP  RH WIND       PRES   REMARKS
CAPE GIRARDEAU CLOUDY    38  22  52 E12       30.43S
FARMINGTON     CLOUDY    34  21  60 E8        30.40S WCI  27
POPLAR BLUFF   CLOUDY    39  24  55 NE10      30.40R
WEST PLAINS    CLOUDY    38  23  55 E10       30.33R

$$



USA.gov is the U.S. government's official web portal to all federal, state and local government web resources and services.